sat.trackr.live / text

‹ back to catalog

BIFROST-DNK

NORAD 64588 · 2025-135BN

PAYLOAD ACTIVE UNKNOWN

§ Identity

Operator
Country
DEN
Launch date
2025-06-23
Launch site
AFWTR
Launch vehicle
Mass (kg)
RCS (m²)

External: N2YO · Heavens-Above · Gunter

§ Orbital elements

Epoch: 2026-05-25T04:14:10.514112Z

Period
96.35 min
Inclination
97.7713°
Eccentricity
0.0005417
Mean motion
14.94512098 rev/d
Perigee alt
580.1 km
Apogee alt
587.7 km
Semi-major
6,962.0 km
B*
2.0921e-4
RAAN
260.0835°
Arg perigee
72.8253°
Mean anomaly
287.3560°
Rev number
5,047

§ Raw data

BIFROST-DNK1 64588U 25135BN  26145.17651058  .00002202  00000+0  20921-3 0  99902 64588  97.7713 260.0835 0005417  72.8253 287.3560 14.94512098 50475

JSON: /api/v1/satellites/64588 · /tle

For live sub-satellite position, see the globe view (requires WebGL).

§ Visibility from observer

Set your observer location to see the next 7 days of passes ≥ 10°. The values pass through the URL so the page stays shareable.

No JS? Fill the form by hand. The geolocation button needs JavaScript.

§ Radio — SatNOGS DB

ModeDescriptionDownlinkUplink
FM S-band telemetry 2.256 GHz

1 transmitter · refreshed weekly from db.satnogs.org